Location: *
(35.8942°N, 23.3025°E)
Time: 07:00:14
(UTC+00:00)

GENESIS II - Pass Details

Date: 21 September 2021
Orbit: 498 x 525 km, 64.5° (Epoch: 21 October)

Event Time Altitude Azimuth Distance (km) Brightness Sun altitude
Rises 03:25:44 0° 330° (NNW) 2,634 7.6 -10.6°
Reaches altitude 10° 03:27:54 10° 330° (NNW) 1,748 6.7 -10.1°
Maximum altitude 03:31:49 90° 247° (WSW) 524 4.2 -9.3°
Drops below altitude 10° 03:35:45 10° 151° (SSE) 1,750 7.2 -8.5°
Sets 03:37:55 0° 152° (SSE) 2,637 8.1 -8.1°
